* Astronomy

Members Login
Username 
 
Password 
    Remember Me  
Post Info TOPIC: NAVSTAR 46 RB(PAM-D) re-entry


L

Posts: 131433
Date:
RE: NAVSTAR 46 RB(PAM-D) re-entry
Permalink  
 


Update:
The NAVSTAR 46 (USA 145) (PAM-D) rocket body re-entered the Earths atmosphere on the 6th March, 2011 @ 09:28 GMT ± 2 hours.

Inclination: 38.55°
Size:          2.66 metres
Revolution Number: 35730
Predicted Location:  32.9°S, 10.7°E

__________________


L

Posts: 131433
Date:
Permalink  
 

Update:
The NAVSTAR 46 (USA 145) (PAM-D) rocket body is predicted to re-enter the Earths atmosphere on the 6th March, 2011 @ 08:44 GMT ± 15 hours.

TLE Data
NAVSTAR 46 RB(PAM-D)
1 25935U 99055C 11064.32146240 .07661873 56728-5 92360-3 0 4681
2 25935 038.5529 016.9028 0105891 004.0004 123.0195 16.19706727357132

Period:       89.56 minutes
Inclination: 38.55°
Apogee:     349 km
Perigee:     157 km
Size:          2.66 metres
Revolution Number: 35730
Predicted Location:  33.1°N, 201.5°E

__________________


L

Posts: 131433
Date:
Permalink  
 

Update:
The NAVSTAR 46 (USA 145) (PAM-D) rocket body is predicted to re-enter the Earths atmosphere on the 6th March, 2011 @ 10:15 GMT ± 24 hours.

TLE Data
NAVSTAR 46 RB(PAM-D)
1 25935U 99055C 11063.58625593 .04659768 53793-5 92580-3 0 4669
2 25935 038.5451 021.9956 0134715 357.3706 168.3907 16.10749730357014

Period:       89.56 minutes
Inclination: 38.55°
Apogee:     349 km
Perigee:     157 km
Size:          2.66 metres
Revolution Number: 35731
Predicted Location:  28°N, 191°E

__________________


L

Posts: 131433
Date:
Permalink  
 

Update:
The NAVSTAR 46 (USA 145) (PAM-D) rocket body is predicted to re-enter the Earths atmosphere on the 6th March, 2011 @14:19 GMT ±48 hours.

TLE Data
NAVSTAR 46 RB(PAM-D)
1 25935U 99055C 11063.28147613 .04430251 53296-5 95908-3 0 4656
2 25935 038.5500 024.0638 0144947 354.8990 202.3503 16.07879588356960

Period:       90.50 minutes
Inclination: 38.55°
Apogee:     435 km
Perigee:     163 km
Size:          2.66 metres
Revolution Number: 35735
Predicted Location:  23.9°N, 24°E

__________________


L

Posts: 131433
Date:
Permalink  
 

Update:
The NAVSTAR 46 (USA 145) (PAM-D) rocket body is predicted to re-enter the Earths atmosphere on the 6th March, 2011 @14:19 GMT  ±48 hours.

TLE Data
NAVSTAR 46 RB(PAM-D)
1 25935U 99055C 11062.33449905 .03350269 51413-5 92386-3 0 4633
2 25935 038.5524 030.4762 0170989 346.7275 134.2576 16.00260592356815

Period:       90.69 minutes
Inclination: 38.56°
Apogee:     454 km
Perigee:     163 km
Size:          2.66 metres
Revolution Number: 35735
Predicted Location:  23.9°N, 24°E

__________________


L

Posts: 131433
Date:
Permalink  
 

Update:
The NAVSTAR 46 (USA 145) (PAM-D) rocket body is predicted to re-enter the Earths atmosphere on the 6th March, 2011 @ 06:50 GMT  ±48 hours.

TLE Data
NAVSTAR 46 RB(PAM-D)
1 25935U 99055C 11061.65734403 .03193213 50498-5 97585-3 0 4617
2 25935 038.5555 035.0260 0187843 341.0361 198.4391 15.95715969356705

Period:       90.69 minutes
Inclination: 38.56°
Apogee:     454 km
Perigee:     163 km
Size:          2.66 metres
Revolution Number: 35730
Predicted Location:  14.9°N, 124.8°E

__________________


L

Posts: 131433
Date:
Permalink  
 

Update:
The NAVSTAR 46 (USA 145) (PAM-D) rocket body is predicted to re-enter the Earths atmosphere on the 3rd March, 2011 @ --:-- GMT  ±-- hours.

TLE Data
NAVSTAR 46 RB(PAM-D)
1 25935U 99055C 11056.41589957 .01515353 44156-5 73953-3 0 4514
2 25935 038.5620 069.4806 0271631 296.3099 208.6126 15.73003168355878

Period:       91.88 minutes
Inclination: 38.57°
Apogee:     565 km
Perigee:     168 km
Revolution Number: -
Predicted Location:  -

__________________


L

Posts: 131433
Date:
Permalink  
 

A NAVSTAR 46 (USA 145) (PAM-D) rocket body that was launched on the 7th October, 1999, from the Air Force Station at Cape Canaveral, for the NAVSTAR 46 satellite mission is predicted to re-enter the Earths atmosphere on the 28th February, 2011 @ --:-- GMT  ±-- hours.

TLE Data
NAVSTAR 46 RB(PAM-D)
1 25935U 99055C 11049.55447057 .01270729 40711-5 82074-3 0 4359
2 25935 038.5675 113.3116 0346438 238.8462 117.7922 15.53558728354805

Period:       92.69 minutes
Inclination: 38.57°
Apogee:     641 km
Perigee:     171 km
Revolution Number: -
Predicted Location:  -

__________________
Page 1 of 1  sorted by
 
Quick Reply

Please log in to post quick replies.



Create your own FREE Forum
Report Abuse
Powered by ActiveBoard